Preview of NWS' New Version of Forecast
This preview is not operational and should not be used for support decisions.
Latest weather observations around

Norwood, Norwood Memorial Airport (KOWD)

Using International System of Units (Switch to English Units)
Date/ Time (EDT) Wind (kph) Vis. (km) Weather Sky Cond. Temp (°C) Rel. Humidity Wind Chill (°C) Heat Index (°C) Pressure Precip. (cm)
Air Dwpt 6 hour Altimeter (hPa) Sea level (hPa) 1 hr 3 hr 6 hr
Max Min
Jun 20 13:03 S 8 8.05 Haze OVC004 22 19     84%   22 1003.4        
Jun 20 12:53 S 8 4.02 Haze OVC004 22 19     84%   22 1003.4 1003.4 0    
Jun 20 12:14 S 5 9.66 Light Rain OVC004 21 18     84%     1004.1   0    
Jun 20 11:53 SE 11 12.87 Cloudy OVC005 21 18     87%     1004.1 1004.1 0    
Jun 20 11:06 ESE 9 4.83 Light Rain and Fog/Mist BKN006 OVC012 21 18     87%     1004.8   0    
Jun 20 10:53 ESE 9 1.61 Rain and Fog/Mist BKN005 BKN009 OVC013 21 18     87%     1004.8 1004.6 0 0  
Jun 20 10:44 SSE 11 2.41 Rain and Fog/Mist BKN007 OVC011 21 18     87%     1004.8   0    
Jun 20 09:53 Calm 16.09 Cloudy OVC006 21 18     87%     1005.1 1005.1 0    
Jun 20 09:08 Calm 8.05 Light Rain and Fog/Mist OVC006 20 18     87%     1005.4   0    
Jun 20 08:53 E 5 4.83 Rain and Fog/Mist OVC004 20 18     87%     1005.8 1005.7 0    
Jun 20 07:53 Calm 11.27 Fog/Mist OVC004 20 17     84%     1006.1 1006.1     0
Jun 20 07:01 Calm 6.44 Fog/Mist OVC006 19 17     87%     1006.4        
Jun 20 06:53 Calm 4.02 Fog/Mist OVC006 19 17     87%     1006.4 1006.5 0    
Jun 20 06:40 Calm 4.83 Haze OVC006 19 17     84%     1006.4   0    
Jun 20 06:27 Calm 2.82 Haze OVC006 19 17     84%     1006.4        
Jun 20 05:53 Calm 16.09 Cloudy OVC007 19 17     84%     1006.4 1006.4      
Jun 20 04:53 ESE 5 16.09 Cloudy BKN009 OVC014 19 17     84%     1006.8 1006.8      
Jun 20 04:50 Calm 16.09 Cloudy BKN009 OVC014 19 17     88%     1007.1        
Jun 20 04:42 Calm 16.09 Cloudy SCT010 OVC016 19 17     84%     1007.1        
Jun 20 04:34 ESE 5 16.09 Cloudy FEW010 OVC014 19 17     84%     1006.8        
Jun 20 03:53 Calm 16.09 Cloudy SCT009 OVC017 19 16     81%     1007.1 1007      
Jun 20 03:40 Calm 16.09 Cloudy BKN009 OVC019 19 16     81%     1007.1        
Jun 20 03:05 Calm 16.09 Cloudy OVC010 19 16     81%     1007.8        
Jun 20 02:53 Calm 16.09 Cloudy OVC008 19 16     81%     1007.8 1007.7      
Jun 20 01:53 Calm 16.09 Cloudy OVC008 19 17     84%     1008.1 1007.9      
Jun 20 00:53 S 5 16.09 Cloudy OVC008 20 17     81%     1008.1 1008.1      
Jun 19 23:53 SSW 13 16.09 Cloudy OVC009 20 17     81%     1008.8 1008.8      
Jun 19 23:38 S 13 16.09 Cloudy OVC009 20 17     81%     1009.2        
Jun 19 22:53 S 15 16.09 Cloudy OVC010 21 17     78%     1009.2 1009.2      
Jun 19 21:53 SSE 11 16.09 Cloudy OVC012 21 17     76%     1009.5 1009.5      
Jun 19 20:53 SSE 9 16.09 Cloudy OVC013 22 17     76%   22 1009.5 1009.5      
Jun 19 20:33 S 9 16.09 Cloudy BKN014 OVC110 22 17     76%   22 1009.5        
Jun 19 20:23 S 8 16.09 Cloudy BKN016 OVC110 22 17     76%   22 1009.5        
Jun 19 20:16 S 5 16.09 Cloudy SCT018 OVC110 22 17     76%   22 1009.5        
Jun 19 19:53 S 11 16.09 Cloudy BKN019 BKN023 OVC100 22 17     73%   22 1009.5 1009.4      
Jun 19 18:53 SSE 21 16.09 Mostly Cloudy BKN016 23 18     73%   23 1009.5 1009.4      
Jun 19 18:27 SSE 13 16.09 Partly Cloudy SCT022 23 18     71%   24 1009.5        
Jun 19 17:53 SSE 15 16.09 Mostly Cloudy BKN019 24 18     69%   25 1009.5 1009.5      
Jun 19 16:53 S 15 16.09 Cloudy SCT029 OVC043 25 18     64%   25 1010.2 1010.1      
Jun 19 16:49 SSE 13 16.09 Cloudy BKN028 OVC043 25 18     65%   25 1010.2        
Jun 19 15:53 S 13 16.09 Mostly Cloudy FEW027 BKN039 26 18     62%   26 1010.2 1010.2      
Jun 19 14:53 SE 9 16.09 Cloudy BKN025 OVC034 24 17     64%   25 1010.8 1010.7      
Jun 19 13:53 ESE 8 16.09 Cloudy OVC026 24 17     66%   24 1010.8 1010.9      
Jun 19 12:53 8 16.09 Cloudy BKN020 OVC026 23 18     71%   24 1011.5 1011.5      
Jun 19 11:53 ENE 5 16.09 Cloudy OVC023 23 18     71%   24 1011.9 1011.8      
Jun 19 10:53 ENE 8 16.09 Cloudy OVC016 22 17     76%   22 1011.9 1011.6      
Jun 19 09:53 ESE 5 16.09 Cloudy OVC015 22 17     76%   22 1011.9 1011.8      
Jun 19 09:22 Calm 16.09 Cloudy SCT009 OVC015 21 17     78%     1011.9        
Jun 19 08:53 Calm 16.09 Cloudy BKN009 OVC016 21 17     78%     1011.9 1011.8      
Jun 19 08:49 Calm 16.09 Cloudy BKN009 OVC016 21 17     78%     1011.9        
Jun 19 08:41 Calm 16.09 Cloudy SCT006 OVC016 21 17     78%     1011.9        
Jun 19 07:53 Calm 12.87 Cloudy BKN006 OVC017 20 17     81%     1012.2 1011.9      
Jun 19 06:53 Calm 12.87 Cloudy BKN005 OVC017 19 17     84%     1011.5 1011.6      
Jun 19 05:53 Calm 8.05 Fog/Mist BKN006 OVC017 19 17     87%     1011.5 1011.4      
Jun 19 05:27 Calm 6.44 Fog/Mist FEW006 OVC015 19 17     87%     1011.5        
Jun 19 04:53 NNE 5 8.05 Fog/Mist OVC014 19 17     87%     1011.5 1011.4      
Jun 19 04:36 Calm 8.05 Fog/Mist OVC014 19 17     87%     1011.5        
Jun 19 03:53 NE 5 6.44 Fog/Mist SCT006 OVC015 19 17     87%     1011.5 1011.3      
Jun 19 03:35 NE 5 6.44 Fog/Mist BKN006 OVC016 19 17     87%     1011.5        
Jun 19 02:53 NNE 5 4.83 Fog/Mist BKN004 OVC015 19 17     87%     1011.5 1011.3      
Jun 19 02:49 Calm 4.83 Haze BKN003 OVC015 20 17     83%     1011.5        
Jun 19 02:37 Calm 6.44 Haze SCT003 OVC015 20 17     84%     1011.5        
Jun 19 02:23 Calm 6.44 Haze FEW003 BKN012 OVC017 20 17     84%     1011.5        
Jun 19 02:10 N 5 9.66 Fog/Mist BKN012 OVC017 20 18     87%     1011.9        
Jun 19 02:01 Calm 11.27 Cloudy SCT006 OVC015 20 18     87%     1011.5        
Jun 19 01:53 Calm 9.66 Fog/Mist BKN006 OVC015 20 18     87%     1011.9 1011.7      
Jun 19 01:33 Calm 9.66 Fog/Mist OVC007 20 18     87%     1011.5        
Jun 19 01:03 Calm   Clear   21 18     84%     1011.9        
Jun 19 00:53 Calm 12.87 Cloudy OVC005 20 18     87%     1011.9 1011.9      
Jun 18 23:53 Calm 16.09 Cloudy OVC008 21 18     84%     1012.2 1012.1      
Jun 18 23:12 Calm 16.09 Cloudy OVC009 21 18     84%     1012.5        
Jun 18 23:02 Calm 16.09 Cloudy OVC010 21 18     84%     1012.2        
Jun 18 22:53 Calm 16.09 Cloudy OVC009 21 18     84%     1012.5 1012.3      
Jun 18 22:41 SSW 5 16.09 Cloudy OVC009 21 18     84%     1012.5        
Jun 18 21:53 Calm 16.09 Cloudy OVC013 21 18     84%     1012.5 1012.4      
Jun 18 21:41 Calm 16.09 Cloudy FEW007 OVC015 21 18     84%     1012.5        
Jun 18 20:53 ESE 5 16.09 Cloudy BKN016 OVC021 21 18     84%     1012.5 1012.3      
Jun 18 20:41 Calm 16.09 Cloudy FEW013 BKN020 OVC036 21 18     87%     1012.5        
Jun 18 20:26 Calm 16.09 Cloudy SCT020 OVC035 21 18     84%     1012.5        
Jun 18 19:53 Calm 16.09 Cloudy FEW010 BKN021 OVC033 21 18     84%     1012.5 1012.5     0
Jun 18 19:44 Calm 16.09 Cloudy SCT010 SCT021 OVC035 21 18     84%     1012.5        
Jun 18 19:14 Calm 16.09 Cloudy BKN010 BKN026 OVC035 22 18     81%   22 1012.5        
Jun 18 18:53 Calm 16.09 Cloudy FEW010 BKN026 OVC033 22 18     81%   22 1012.5 1012.6 0    
Jun 18 18:40 Calm 16.09 Cloudy SCT023 OVC033 22 18     81%   22 1012.5   0    
Jun 18 17:53 Calm 14.48 Light Rain OVC016 22 18     81%   22 1012.5 1012.4 0    
Jun 18 17:46 Calm 16.09 Light Rain FEW010 OVC016 22 18     81%   22 1012.5   0    
Jun 18 17:28 Calm 16.09 Cloudy FEW009 BKN012 OVC100 22 18     81%   22 1012.9        
Jun 18 17:21 SSE 8 16.09 Cloudy BKN009 BKN014 OVC100 22 18     81%   22 1012.9        
Jun 18 17:17 Calm 16.09 Cloudy BKN011 BKN016 OVC100 22 18     81%   22 1012.9        
Jun 18 16:53 S 11 16.09 Cloudy FEW020 OVC100 22 18     81%   22 1012.9 1012.8 0 0  
Jun 18 16:36 S 9 16.09 Cloudy FEW020 OVC100 22 18     81%   22 1012.5   0    
Jun 18 16:02 S 8 16.09 Cloudy FEW007 BKN015 OVC110 22 19     84%   22 1013.2   0    
Jun 18 15:53 S 5 16.09 Light Rain BKN010 BKN036 OVC110 22 18     81%   22 1013.2 1013.1 0    
Jun 18 15:17 SE 8 14.48 Light Rain SCT028 BKN090 OVC110 21 18     84%     1013.6   0    
Jun 18 14:53 S 9 6.44 Light Rain OVC025 21 18     84%     1013.9 1013.9 0    
Jun 18 13:53 S 11 12.87 Light Rain BKN017 OVC024 22 18     81%   22 1014.6 1014.3 0   0
Jun 18 13:13 ESE 11 16.09 Cloudy BKN021 BKN028 OVC070 23 18     74%   24 1014.2        
Jun 18 12:53 Calm 16.09 Cloudy FEW025 SCT055 OVC070 24 18     71%   24 1014.6 1014.3      
Jun 18 11:53 5 16.09 Cloudy SCT015 OVC021 23 18     74%   24 1014.6 1014.5 0    
Jun 18 10:53 Calm 16.09 Cloudy OVC015 23 18     76%   23 1014.9 1014.8      
Jun 18 09:53 Calm 16.09 Cloudy OVC011 23 18     73%   23 1014.9 1014.8      
Jun 18 08:53 Calm 16.09 Cloudy OVC011 22 18     79%   22 1014.9 1014.7      
Jun 18 08:51 ESE 5 16.09 Cloudy OVC011 22 18     78%   22 1014.9        
Jun 18 07:53 Calm 14.48 Fog/Mist BKN006 OVC014 21 18     81%     1014.9 1015     0
Jun 18 06:53 SE 5 9.66 Haze OVC006 20 17     84%     1015.2 1015      
Jun 18 06:35 SE 5 9.66 Haze BKN006 OVC065 20 17     84%     1014.9        
Jun 18 06:27 Calm 9.66 Haze SCT006 BKN065 OVC100 20 17     84%     1014.9        
Jun 18 05:53 Calm 8.05 Fog/Mist SCT080 BKN100 OVC120 19 17     87%     1014.9 1014.7 0    
Jun 18 04:53 Calm 11.27 Light Rain FEW070 OVC100 19 16     84%     1014.9 1014.7 0 0  
Jun 18 03:53 SE 5 11.27 Mostly Cloudy BKN110 18 16     87%     1014.6 1014.6      
Jun 18 02:53 SSE 5 16.09 Mostly Clear FEW120 19 16     84%     1014.6 1014.6      
Jun 18 01:53 ESE 5 14.48 Partly Cloudy SCT110 18 16     87%     1015.2 1015      
Jun 18 00:53 SE 5 16.09 Mostly Clear FEW120 18 16     87%     1015.6 1015.5      
Jun 17 23:53 SSE 5 16.09 Clear CLR 18 15     84%     1015.6 1015.4      
Jun 17 22:53 S 5 16.09 Clear CLR 19 14     75%     1015.6 1015.3      
Jun 17 21:53 SSE 8 16.09 Clear CLR 20 15     73%     1015.2 1015.3      
Jun 17 20:53 S 8 16.09 Clear CLR 21 16     71%     1014.9 1014.8      
Jun 17 19:53 SE 8 16.09 Clear CLR 23 14     57%   23 1014.6 1014.4      
Jun 17 18:53 WNW 11 16.09 Clear CLR 26 12     41%   26 1014.2 1014.1      
Jun 17 17:53 WSW 11 16.09 Clear CLR 26 14     49%   26 1014.2 1014.3      
Jun 17 16:53 E 8 16.09 Mostly Clear FEW046 27 16     51%   27 1014.6 1014.5      
Jun 17 15:53 Calm 16.09 Clear CLR 26 14     49%   26 1014.9 1014.7      
Jun 17 14:53 ENE 5 16.09 Clear CLR 26 15     52%   26 1014.9 1014.7      
Jun 17 13:53 5 16.09 Mostly Clear FEW044 26 14     50%   26 1014.9 1014.7      
May 15 06:53 S 9 4.83 Fog/Mist OVC003 15 14     93%     1010.8 1010.9      
May 15 04:53 S 8 14.48 Clear   14 12     89%     1011.2 1011      
May 14 23:53 S 8 16.09 Clear CLR 14 12     87%     1012.5 1012.6      
May 14 13:53 SSW 15 16.09 Partly Cloudy SCT035 21 12     55%     1013.6 1013.5      
May 14 06:19 SSE 8 16.09 Cloudy BKN007 OVC030 11 9     89%     1016.6        
May 13 23:53 SSE 8 16.09 Clear CLR 10 8     89% 9   1018.6 1018.4      
May 13 13:53 NNE 9 16.09 Mostly Cloudy BKN021 BKN026 16 9     67%     1022 1022      
May 13 00:53 NNE 8 9.66 Fog/Mist OVC006 11 9     89%     1019.7 1019.6      
May 12 14:15 N 5 16.09 Cloudy BKN009 OVC013 12 10     89%     1020.7        
May 11 20:53 SSE 5 16.09 Clear CLR 12 0     43%     1018.3 1018.2      
May 11 12:53   16.09 Clear CLR 20 2     30%     1014.6 1014.5      
Jun 12 05:53 Calm 16.09 Clear CLR 21 18     87%     1014.6 1014.5      
Jun 10 22:53 SSW 11 16.09 Clear   23 13     55%   23 1015.6 1015.5      
Jun 10 15:53 S 21 16.09 Clear CLR 28 13     38%   28 1012.9 1012.8      
Jun 08 08:53 Calm 16.09 Clear CLR 19 13     68%     1017.3 1017.2      
Jun 07 22:53 Calm 16.09 Clear CLR 11 10     93%     1016.6 1016.5      
Jun 07 11:53 NE 13 16.09 Cloudy OVC075 18 10     60%     1014.6 1014.5      
Jun 06 13:35 NNE 22 9.66 Light Rain and Fog/Mist SCT009 SCT018 OVC039 9 8     93% 6   1010.2   0    
Jun 06 11:53 NE 18 2.01 Light Rain and Fog/Mist BKN007 OVC014 10 9     93% 8   1010.5 1010.3 0    
Notice The following observation data may not be complete
Jun 06 05:05   2.82 Fog/Mist OVC006          %              
Jun 05 21:53 ENE 15 4.02 Light Rain and Fog/Mist OVC006 12 12     97%     1010.5 1010.3 0    
Jun 05 18:53 ENE 13 2.82 Fog/Mist OVC006 13 12     93%     1010.2 1009.9